Date String (YYYY-MM-DD hh:mm:ss) UTC,Instrument flags,absolute air pressure of the measurement (hPa),sample flow rate (lpm),inlet stack bypass flow (lpm),air temperature of the measurement (°C),ambient temperature measured by the external sensor (°C),aerosol sample conditioner tube jacket temperature (°C),OPC LED temperature (°C),internal box temperature (°C),relative humidity of the measurement (%),span deviation,mass concentration of particles derived from Lorenz-Mie calculation of OPC scattering (μg/m³),mass concentration of particles derived from Lorenz-Mie calculation of OPC scattering (μg/m³),mass concentration of particles derived from Lorenz-Mie calculation of OPC scattering (μg/m³)
DateTimeUTC,F1_M11,P_M11,Q1_M11,Q2_M11,T1_M11,T2_M11,T3_M11,T4_M11,T5_M11,U1_M11,ZSPAN_M11,X0_M11,X2_M11,X1_M11
2023-08-19 01:00:00,SystemResetWarning,0829.7,5.01,000.00,027.6,025.3,000.0,035.9,029.2,30.8,0000.0,0005.83,0002.69,0002.02
2023-08-19 01:01:00,SystemResetWarning,0829.7,5.00,000.00,027.7,025.7,000.0,036.0,029.4,30.7,0000.0,0005.76,0002.66,0002.01
2023-08-19 01:02:00,SystemResetWarning,0829.7,5.00,000.00,027.7,026.1,000.0,036.0,029.5,31.2,0000.0,0005.86,0002.68,0002.00
2023-08-19 01:03:00,SystemResetWarning,0829.7,4.99,000.00,027.7,025.5,000.0,035.9,029.4,31.5,0000.0,0005.46,0002.69,0001.99
2023-08-19 01:04:00,SystemResetWarning,0829.7,4.99,000.00,027.7,024.2,000.0,035.8,029.1,31.7,0000.0,0005.12,0002.62,0001.96
2023-08-19 01:05:00,SystemResetWarning,0829.7,5.00,000.00,027.6,023.8,000.0,035.8,029.0,32.7,0000.0,0004.61,0002.59,0001.94
2023-08-19 01:06:00,SystemResetWarning,0829.8,5.01,000.00,027.5,024.0,000.0,035.8,028.8,34.0,0000.0,0004.45,0002.57,0001.94
2023-08-19 01:07:00,SystemResetWarning,0829.8,5.01,000.00,027.5,024.3,000.0,035.8,028.9,34.3,0000.0,0004.30,0002.50,0001.91
2023-08-19 01:08:00,SystemResetWarning,0829.7,4.99,000.00,027.5,024.8,000.0,035.8,029.0,34.9,0000.0,0004.13,0002.46,0001.90
2023-08-19 01:09:00,SystemResetWarning,0829.7,5.01,000.00,027.6,025.2,000.0,035.9,029.2,34.5,0000.0,0004.01,0002.44,0001.89
2023-08-19 01:10:00,SystemResetWarning,0829.7,5.00,000.00,027.6,025.6,000.0,035.9,029.3,33.7,0000.0,0003.91,0002.48,0001.90
2023-08-19 01:11:00,SystemResetWarning,0829.7,4.99,000.00,027.7,026.0,000.0,035.9,029.4,33.5,0000.0,0004.01,0002.54,0001.91
2023-08-19 01:12:00,SystemResetWarning,0829.7,4.99,000.00,027.7,025.6,000.0,035.9,029.4,33.7,0000.0,0004.83,0002.54,0001.90
2023-08-19 01:13:00,SystemResetWarning,0829.7,5.00,000.00,027.7,024.2,000.0,035.8,029.1,34.4,0000.0,0005.48,0002.54,0001.90
2023-08-19 01:14:00,SystemResetWarning,0829.7,5.00,000.00,027.6,023.8,000.0,035.7,029.0,34.8,0000.0,0005.59,0002.58,0001.92
2023-08-19 01:15:00,SystemResetWarning,0829.7,5.02,000.00,027.6,024.0,000.0,035.8,028.9,35.4,0000.0,0005.67,0002.61,0001.93
2023-08-19 01:16:00,SystemResetWarning,0829.7,5.00,000.00,027.8,024.3,000.0,035.8,029.0,35.5,0000.0,0005.63,0002.59,0001.94
2023-08-19 01:17:00,SystemResetWarning,0829.7,4.99,000.00,028.1,024.8,000.0,035.8,029.3,35.6,0000.0,0005.57,0002.56,0001.93
2023-08-19 01:18:00,SystemResetWarning,0829.7,5.03,000.00,028.5,025.2,000.0,035.9,029.6,33.4,0000.0,0006.24,0002.59,0001.94
2023-08-19 01:19:00,SystemResetWarning,0829.8,4.97,000.00,028.8,025.6,000.0,036.0,029.7,34.2,0000.0,0006.96,0002.63,0001.94
2023-08-19 01:20:00,SystemResetWarning,0829.8,5.01,000.00,029.0,026.0,000.0,036.1,029.8,34.1,0000.0,0006.97,0002.63,0001.94
2023-08-19 01:21:00,SystemResetWarning,0829.8,5.01,000.00,029.2,026.2,000.0,036.2,029.8,33.6,0000.0,0006.86,0002.59,0001.93
2023-08-19 01:22:00,SystemResetWarning,0829.7,4.99,000.00,029.2,025.2,000.0,036.3,029.6,31.9,0000.0,0006.91,0002.59,0001.92
2023-08-19 01:23:00,SystemResetWarning,0829.7,5.00,000.00,029.2,024.0,000.0,036.3,029.3,32.4,0000.0,0006.24,0002.58,0001.93
2023-08-19 01:24:00,SystemResetWarning,0829.8,5.01,000.00,029.2,023.8,000.0,036.3,029.2,32.3,0000.0,0005.53,0002.56,0001.94
2023-08-19 01:25:00,SystemResetWarning,0829.8,5.01,000.00,029.1,024.1,000.0,036.4,029.1,30.4,0000.0,0005.11,0002.52,0001.93
2023-08-19 01:26:00,SystemResetWarning,0829.8,4.99,000.00,029.0,024.5,000.0,036.5,029.3,30.1,0000.0,0005.01,0002.51,0001.92
2023-08-19 01:27:00,SystemResetWarning,0829.8,5.00,000.00,029.0,025.0,000.0,036.6,029.4,30.2,0000.0,0004.88,0002.48,0001.90
2023-08-19 01:28:00,SystemResetWarning,0829.9,5.00,000.00,029.0,025.4,000.0,036.7,029.5,29.7,0000.0,0004.93,0002.48,0001.89
2023-08-19 01:29:00,SystemResetWarning,0829.9,5.00,000.00,029.1,025.8,000.0,036.8,029.7,30.7,0000.0,0004.66,0002.49,0001.87
2023-08-19 01:30:00,SystemResetWarning,0829.9,5.00,000.00,029.1,026.2,000.0,036.8,029.8,31.5,0000.0,0003.80,0002.47,0001.85
2023-08-19 01:31:00,SystemResetWarning,0829.9,4.99,000.00,029.1,026.0,000.0,036.8,029.8,30.1,0000.0,0004.77,0002.43,0001.86
2023-08-19 01:32:00,SystemResetWarning,0829.8,5.00,000.00,029.1,024.7,000.0,036.8,029.5,29.7,0000.0,0004.99,0002.44,0001.85
2023-08-19 01:33:00,SystemResetWarning,0829.9,5.00,000.00,029.0,023.9,000.0,036.7,029.3,30.6,0000.0,0004.91,0002.42,0001.86
2023-08-19 01:34:00,SystemResetWarning,0829.8,5.02,000.00,028.9,024.0,000.0,036.7,029.2,28.3,0000.0,0004.87,0002.41,0001.88
2023-08-19 01:35:00,SystemResetWarning,0829.8,5.00,000.00,028.8,024.3,000.0,036.7,029.2,27.9,0000.0,0005.04,0002.50,0001.91
2023-08-19 01:36:00,SystemResetWarning,0829.9,5.00,000.00,028.7,024.7,000.0,036.8,029.3,27.5,0000.0,0005.04,0002.53,0001.94
2023-08-19 01:37:00,SystemResetWarning,0829.9,5.00,000.00,028.7,025.2,000.0,036.8,029.5,27.7,0000.0,0005.26,0002.59,0002.01
2023-08-19 01:38:00,SystemResetWarning,0829.9,5.00,000.00,028.7,025.6,000.0,036.8,029.6,27.9,0000.0,0005.60,0002.71,0002.06
2023-08-19 01:39:00,SystemResetWarning,0829.9,5.00,000.00,028.8,026.0,000.0,036.8,029.7,28.1,0000.0,0005.86,0002.80,0002.11
2023-08-19 01:40:00,SystemResetWarning,0829.9,4.99,000.00,028.8,026.2,000.0,036.8,029.8,27.8,0000.0,0005.98,0002.90,0002.19
2023-08-19 01:41:00,SystemResetWarning,0829.9,4.99,000.00,028.8,025.4,000.0,036.8,029.6,27.0,0000.0,0006.27,0003.02,0002.25
2023-08-19 01:42:00,SystemResetWarning,0829.9,5.01,000.00,028.7,024.1,000.0,036.7,029.3,27.3,0000.0,0006.61,0003.11,0002.32
2023-08-19 01:43:00,SystemResetWarning,0829.9,5.01,000.00,028.6,023.8,000.0,036.6,029.2,27.9,0000.0,0007.08,0003.17,0002.38
2023-08-19 01:44:00,SystemResetWarning,0830.0,5.01,000.00,028.5,024.0,000.0,036.6,029.1,28.1,0000.0,0007.38,0003.26,0002.44
2023-08-19 01:45:00,SystemResetWarning,0830.0,5.00,000.00,028.4,024.4,000.0,036.6,029.2,28.3,0000.0,0007.44,0003.30,0002.48
2023-08-19 01:46:00,SystemResetWarning,0830.0,5.00,000.00,028.4,024.9,000.0,036.6,029.3,28.3,0000.0,0007.39,0003.29,0002.48
2023-08-19 01:47:00,SystemResetWarning,0830.0,5.01,000.00,028.4,025.3,000.0,036.7,029.5,28.5,0000.0,0007.36,0003.29,0002.48
2023-08-19 01:48:00,SystemResetWarning,0830.0,5.00,000.00,028.4,025.7,000.0,036.7,029.6,28.6,0000.0,0007.21,0003.26,0002.47
2023-08-19 01:49:00,SystemResetWarning,0830.0,5.00,000.00,028.5,026.0,000.0,036.7,029.7,28.8,0000.0,0007.44,0003.29,0002.48
2023-08-19 01:50:00,SystemResetWarning,0830.0,5.00,000.00,028.5,026.3,000.0,036.7,029.7,28.8,0000.0,0007.71,0003.30,0002.48
2023-08-19 01:51:00,SystemResetWarning,0830.0,4.99,000.00,028.5,025.7,000.0,036.6,029.6,29.1,0000.0,0008.62,0003.29,0002.45
2023-08-19 01:52:00,SystemResetWarning,0830.0,5.01,000.00,028.4,024.2,000.0,036.5,029.3,29.5,0000.0,0008.60,0003.27,0002.42
2023-08-19 01:53:00,SystemResetWarning,0830.0,5.01,000.00,028.4,023.7,000.0,036.4,029.2,29.3,0000.0,0007.93,0003.25,0002.37
2023-08-19 01:54:00,SystemResetWarning,0830.1,5.00,000.00,028.2,023.9,000.0,036.4,029.0,29.0,0000.0,0007.65,0003.18,0002.31
2023-08-19 01:55:00,SystemResetWarning,0830.0,5.00,000.00,028.2,024.3,000.0,036.4,029.1,29.1,0000.0,0007.69,0003.08,0002.25
2023-08-19 01:56:00,SystemResetWarning,0830.1,5.00,000.00,028.1,024.7,000.0,036.4,029.2,28.4,0000.0,0008.10,0003.02,0002.20
2023-08-19 01:57:00,SystemResetWarning,0830.1,5.00,000.00,028.2,025.2,000.0,036.5,029.4,28.2,0000.0,0008.42,0002.99,0002.17
2023-08-19 01:58:00,SystemResetWarning,0830.1,5.00,000.00,028.2,025.6,000.0,036.5,029.5,28.3,0000.0,0008.55,0003.00,0002.13
2023-08-19 01:59:00,SystemResetWarning,0830.1,5.00,000.00,028.2,025.9,000.0,036.5,029.6,28.2,0000.0,0009.07,0003.01,0002.10
